{"data":{"norad_id":57345,"epoch":"2026-09-20T15:31:52.501152Z","epoch_age_seconds":111582,"freshness":"FRESH","line1":"1 57345U 23099T   26263.64713543 -.00001413  00000+0 -41822-4 0  9990","line2":"2 57345  43.0035 234.7088 0001484 284.2969  75.7718 15.27571165175851","mean_motion":15.27571165,"eccentricity":0.0001484,"inclination_deg":43.0035,"raan_deg":234.7088,"arg_perigee_deg":284.2969,"mean_anomaly_deg":75.7718,"bstar":-4.1822e-5,"rev_number":17585,"period_min":94.267293923423,"perigee_km":482.05734739292,"apogee_km":484.09375527815,"semimajor_km":6861.2125513355,"source":"CELESTRAK","updated_at":"2026-09-21T09:00:33.599348Z"}}